User: anonymous   Login
Location: Rowland
(34.5359°N, 79.2929°W)
Time: 12:58:10
(UTC+00:00)
Language:

Transit 4A - Orbit

View from above orbital plane
View from above orbital plane
View from above satellite
View from above satellite

Ground track
Ground track

The orbit data is extracted from the following two-line orbital elements,

1 00116U 61015A   22277.50428444  .00000009  00000-0  65611-4 0  9994
2 00116  66.8100 316.9595 0071789 145.3128 215.2664 13.91847687108565
Epoch (UTC): 04 October 2022 12:06:10
Eccentricity: 0.0071789
inclination: 66.8100°
perigee height: 870 km
apogee height: 974 km
right ascension of ascending node: 316.9595°
argument of perigee: 145.3128°
revolutions per day: 13.91847687
mean anomaly at epoch: 215.2664°
orbit number at epoch: 10856

The dashed part of the orbit path shows where the satellite is in the earth's shadow,  

DLR